GW5346 Weather Reports


Display with metric or nautical units.
time (UTC)temp
F
wind
direction
speed
MPH
gust
MPH
rain 1hr
in
rain 24hr
in
rain mn
in
humidity
%
barometer
mb
20260504081601 50 20 13.0 19.0 0.00 0.01 0.00 49 1015.6
20260504044550 57 17 12.0 18.0 0.00 0.01 0.01 35 1009.9
20260504043057 58 20 10.0 13.0 0.00 0.01 0.01 34 1009.4
20260504041551 58 22 7.0 11.0 0.00 0.01 0.01 34 1009.1
20260504040051 59 22 8.0 13.0 0.00 0.01 0.01 33 1008.7
20260504034545 60 24 13.0 21.0 0.00 0.01 0.01 33 1008.3
20260504033051 61 36 12.0 22.0 0.00 0.01 0.01 32 1008.0
20260504031543 62 23 14.0 19.0 0.00 0.01 0.01 30 1007.7
20260504030052 63 352 10.0 16.0 0.00 0.01 0.01 25 1007.2
20260504024552 64 36 2.0 5.0 0.00 0.01 0.01 22 1006.8
20260504023046 66 34 6.0 9.0 0.00 0.01 0.01 22 1006.9
20260504021554 68 14 6.0 12.0 0.00 0.01 0.01 21 1006.9
20260504020127 70 10 10.0 16.0 0.00 0.01 0.01 20 1006.8
20260504014602 71 9 11.0 16.0 0.00 0.01 0.01 19 1006.9
20260504013059 72 348 12.0 17.0 0.00 0.01 0.01 19 1006.8
20260504011548 73 14 13.0 20.0 0.00 0.01 0.01 18 1006.9
20260504010051 74 341 13.0 19.0 0.00 0.01 0.01 18 1006.9
20260504004618 74 11 15.0 23.0 0.00 0.01 0.01 18 1007.0
20260504003053 75 347 9.0 22.0 0.00 0.01 0.01 17 1007.0
20260504001615 76 342 11.0 19.0 0.00 0.01 0.01 16 1007.1
20260503234547 76 292 12.0 19.0 0.00 0.01 0.01 16 1007.1
20260503233045 76 322 8.0 18.0 0.00 0.01 0.01 16 1007.2
20260503231552 76 275 10.0 17.0 0.00 0.01 0.01 15 1007.4
20260503230105 76 296 12.0 19.0 0.00 0.01 0.01 16 1007.6
20260503224551 76 328 8.0 19.0 0.00 0.01 0.01 15 1007.8
20260503223049 76 283 13.0 25.0 0.00 0.01 0.01 15 1008.1
20260503221556 76 284 5.0 19.0 0.00 0.01 0.01 16 1008.3
20260503220051 76 316 9.0 20.0 0.00 0.01 0.01 15 1008.4
20260503214545 75 331 10.0 19.0 0.00 0.01 0.01 17 1008.7
20260503213047 75 263 9.0 20.0 0.00 0.01 0.01 16 1008.9
20260503211554 75 314 10.0 18.0 0.00 0.01 0.01 16 1009.3
20260503210051 74 297 11.0 17.0 0.00 0.01 0.01 17 1009.5
20260503204550 74 338 9.0 17.0 0.00 0.01 0.01 17 1009.6
20260503203102 73 269 9.0 19.0 0.00 0.01 0.01 17 1009.9
20260503201546 73 260 8.0 13.0 0.00 0.01 0.01 19 1010.0
20260503200105 72 322 12.0 25.0 0.00 0.01 0.01 19 1010.4
20260503194545 72 341 5.0 14.0 0.00 0.01 0.01 20 1010.7
20260503193049 72 311 13.0 21.0 0.00 0.01 0.01 19 1011.0
20260503191551 71 299 11.0 22.0 0.00 0.01 0.01 19 1011.3
20260503190057 71 278 10.0 18.0 0.00 0.01 0.01 20 1011.4
20260503184552 71 302 3.0 17.0 0.00 0.01 0.01 20 1011.6
20260503183051 70 290 14.0 23.0 0.00 0.01 0.01 21 1011.7
20260503181559 70 269 5.0 20.0 0.00 0.01 0.01 21 1011.8
20260503180054 70 223 10.0 20.0 0.00 0.01 0.01 22 1011.9
20260503174548 69 306 9.0 17.0 0.00 0.01 0.01 23 1012.0
20260503173048 69 336 7.0 17.0 0.00 0.01 0.01 25 1012.2
20260503171556 68 333 9.0 18.0 0.00 0.01 0.01 25 1012.3